EW9542 Weather Reports


time (UTC)temp
F
wind
direction
speed
knots
gust
knots
rain 1hr
in
rain 24hr
in
rain mn
in
humidity
%
barometer
mb
20260504081523 43 353 0.9 1.7 0.00 0.00 0.00 81 1014.8
20260504080520 44 16 0.0 0.9 0.00 0.00 0.00 81 1014.8
20260504050524 40 349 0.9 1.7 0.00 0.00 0.00 76 1015.6
20260504045522 40 30 0.9 1.7 0.00 0.00 0.00 76 1015.5
20260504044519 40 16 1.7 1.7 0.00 0.00 0.00 75 1015.6
20260504043517 40 20 1.7 1.7 0.00 0.00 0.00 76 1015.7
20260504042530 39 4 1.7 1.7 0.00 0.00 0.00 79 1015.6
20260504041527 38 1 0.9 1.7 0.00 0.00 0.00 80 1015.7
20260504040525 38 32 1.7 2.6 0.00 0.00 0.00 79 1015.7
20260504035522 38 341 0.9 2.6 0.00 0.00 0.00 76 1015.6
20260504034520 39 26 0.9 1.7 0.00 0.00 0.00 75 1015.6
20260504033537 39 323 1.7 2.6 0.00 0.00 0.00 75 1015.5
20260504032530 40 47 0.9 1.7 0.00 0.00 0.00 74 1015.3
20260504031528 39 359 0.9 1.7 0.00 0.00 0.00 75 1015.2
20260504030525 39 17 0.9 1.7 0.00 0.00 0.00 75 1015.3
20260504025523 40 14 1.7 2.6 0.00 0.00 0.00 72 1015.3
20260504024521 40 4 0.9 1.7 0.00 0.00 0.00 70 1015.4
20260504023559 41 359 0.9 1.7 0.00 0.00 0.00 70 1015.3
20260504022538 42 10 0.9 1.7 0.00 0.00 0.00 68 1015.3
20260504021529 42 339 0.9 1.7 0.00 0.00 0.00 67 1015.2
20260504020527 43 359 1.7 1.7 0.00 0.00 0.00 66 1015.1
20260504015605 43 32 0.0 1.7 0.00 0.00 0.00 64 1014.8
20260504014522 44 355 0.9 1.7 0.00 0.00 0.00 62 1014.7
20260504013520 45 9 0.9 1.7 0.00 0.00 0.00 59 1014.6
20260504012538 46 355 0.9 1.7 0.00 0.00 0.00 55 1014.4
20260504011530 47 356 0.9 1.7 0.00 0.00 0.00 54 1014.4
20260504010548 48 10 1.7 2.6 0.00 0.00 0.00 51 1014.3
20260504005546 49 5 1.7 1.7 0.00 0.00 0.00 47 1014.3
20260504004524 50 348 0.9 1.7 0.00 0.00 0.00 45 1014.2
20260504003522 51 357 0.9 1.7 0.00 0.00 0.00 44 1014.2
20260504002519 53 0 0.9 1.7 0.00 0.00 0.00 40 1014.1
20260504001518 55 19 0.9 1.7 0.00 0.00 0.00 35 1014.1
20260504000530 58 355 0.9 1.7 0.00 0.00 0.00 30 1014.2
20260503235648 59 320 1.7 3.5 0.00 0.00 0.00 26 1014.1
20260503234525 60 306 1.7 3.5 0.00 0.00 0.00 25 1014.1
20260503233523 61 299 2.6 4.3 0.00 0.00 0.00 25 1014.0
20260503232520 62 312 2.6 3.5 0.00 0.00 0.00 24 1014.0
20260503231539 63 333 3.5 8.7 0.00 0.00 0.00 23 1013.8
20260503230516 63 319 2.6 4.3 0.00 0.00 0.00 23 1013.8
20260503225529 63 324 3.5 7.8 0.00 0.00 0.00 22 1013.7
20260503224606 64 331 3.5 7.0 0.00 0.00 0.00 22 1013.8
20260503223524 63 340 3.5 6.1 0.00 0.00 0.00 22 1013.8
20260503222522 63 295 3.5 7.8 0.00 0.00 0.00 22 1013.8
20260503221519 63 319 4.3 10.4 0.00 0.00 0.00 22 1013.8
20260503220537 63 358 5.2 9.6 0.00 0.00 0.00 23 1013.8
20260503215531 64 347 5.2 9.6 0.00 0.00 0.00 22 1014.0
20260503214528 63 345 4.3 7.8 0.00 0.00 0.00 22 1014.0
20260503213526 63 4 6.1 10.4 0.00 0.00 0.00 22 1014.1
20260503212523 63 313 6.1 11.3 0.00 0.00 0.00 22 1014.0
20260503211521 63 316 6.1 13.9 0.00 0.00 0.00 23 1014.0
20260503210519 63 261 6.1 13.0 0.00 0.00 0.00 24 1013.9
20260503205516 63 322 5.2 10.4 0.00 0.00 0.00 22 1014.0
20260503204549 63 299 4.3 12.2 0.00 0.00 0.00 23 1014.1
20260503203527 63 323 3.5 11.3 0.00 0.00 0.00 23 1014.1
20260503202545 63 291 5.2 9.6 0.00 0.00 0.00 23 1014.2
20260503201523 62 328 4.3 7.8 0.00 0.00 0.00 24 1014.4
20260503200520 62 257 3.5 8.7 0.00 0.00 0.00 22 1014.4
20260503195518 62 7 3.5 7.0 0.00 0.00 0.00 23 1014.6
20260503194551 62 337 6.1 11.3 0.00 0.00 0.00 24 1014.8
20260503193529 61 323 7.0 11.3 0.00 0.00 0.00 24 1015.0
20260503192526 61 320 4.3 8.7 0.00 0.00 0.00 23 1015.1
20260503191545 61 322 6.1 9.6 0.00 0.00 0.00 23 1015.3
20260503190523 60 349 3.5 11.3 0.00 0.00 0.00 24 1015.5
20260503185519 59 300 7.0 12.2 0.00 0.00 0.00 25 1015.6
20260503184517 60 2 7.0 13.0 0.00 0.00 0.00 24 1015.7
20260503183531 60 2 7.0 12.2 0.00 0.00 0.00 25 1015.9
20260503182528 60 341 7.8 16.5 0.00 0.00 0.00 25 1015.8
20260503181526 59 312 5.2 9.6 0.00 0.00 0.00 27 1015.8
20260503180523 59 324 5.2 11.3 0.00 0.00 0.00 26 1015.9
20260503175521 58 319 5.2 11.3 0.00 0.00 0.00 27 1016.1
20260503174519 58 325 5.2 11.3 0.00 0.00 0.00 28 1016.0
20260503173517 57 318 5.2 7.8 0.00 0.00 0.00 30 1016.1
20260503172529 57 342 5.2 10.4 0.00 0.00 0.00 30 1016.3
20260503171547 57 354 6.1 10.4 0.00 0.00 0.00 29 1016.5
20260503170525 56 292 5.2 10.4 0.00 0.00 0.00 30 1016.5
20260503150527 54 298 7.0 15.6 0.00 0.00 0.00 33 1017.6
20260503130530 48 351 4.3 9.6 0.00 0.00 0.00 45 1017.9
20260503110517 39 31 0.9 1.7 0.00 0.00 0.00 72 1016.9